DW4839 Weather Reports


time (UTC)temp
C
wind
direction
speed
KPH
gust
KPH
rain 1hr
cm
rain 24hr
cm
rain mn
cm
humidity
%
barometer
mb
20260503184547 23 345 6.4 16.1 0.00 0.00 0.00 55 1011.8
20260503183054 22 14 6.4 17.7 0.00 0.00 0.00 58 1012.1
20260503181618 22 348 6.4 12.9 0.00 0.00 0.00 59 1012.2
20260503180059 21 16 6.4 14.5 0.00 0.00 0.00 63 1012.1
20260503174558 20 9 8.0 16.1 0.00 0.00 0.00 64 1012.2
20260503173056 20 352 9.7 16.1 0.00 0.00 0.00 64 1012.2
20260503171548 20 33 8.0 16.1 0.00 0.00 0.00 67 1012.3
20260503120105 13 352 6.4 8.0 0.00 0.00 0.00 88 1012.1
20260503100107 14 350 6.4 12.9 0.00 0.03 0.00 81 1012.5
20260503081554 14 332 3.2 6.4 0.00 0.05 0.00 81 1012.9
20260503071559 15 348 6.4 8.0 0.00 0.05 0.00 80 1013.1
20260503060114 16 56 0.0 12.9 0.00 0.05 0.05 77 1013.2
20260503054552 16 74 1.6 6.4 0.00 0.05 0.05 77 1013.3
20260503053050 16 33 4.8 12.9 0.00 0.05 0.05 76 1013.1
20260503051554 16 9 6.4 14.5 0.00 0.05 0.05 78 1013.0
20260503050056 16 23 8.0 12.9 0.00 0.05 0.05 77 1013.0
20260503044619 16 360 4.8 11.3 0.00 0.05 0.05 75 1013.2
20260503043054 16 32 6.4 9.7 0.00 0.05 0.05 74 1013.4
20260503041555 16 53 3.2 4.8 0.00 0.05 0.05 72 1013.3
20260503040058 17 0 1.6 4.8 0.00 0.05 0.05 69 1013.0
20260503034559 17 178 1.6 4.8 0.00 0.05 0.05 69 1013.0
20260503033053 17 174 4.8 8.0 0.00 0.05 0.05 67 1012.9
20260503031552 17 167 3.2 6.4 0.00 0.05 0.05 70 1012.9
20260503030104 16 209 4.8 11.3 0.00 0.05 0.05 74 1012.6
20260503024557 15 223 6.4 20.9 0.00 0.05 0.05 77 1012.6
20260503023058 15 177 12.9 25.7 0.00 0.05 0.05 77 1012.8
20260503021555 16 209 16.1 27.4 0.00 0.05 0.05 75 1012.8
20260503020049 17 220 11.3 20.9 0.00 0.05 0.05 71 1012.6
20260503014610 19 217 4.8 8.0 0.00 0.05 0.05 66 1012.1
20260503013102 19 192 1.6 3.2 0.00 0.05 0.05 64 1012.0
20260503011554 19 26 0.0 3.2 0.00 0.05 0.05 64 1012.0
20260503010055 18 0 0.0 4.8 0.00 0.05 0.05 67 1011.9
20260503004553 19 5 1.6 3.2 0.00 0.05 0.05 65 1011.9
20260503003052 18 23 1.6 6.4 0.00 0.05 0.05 67 1011.8
20260503001552 18 327 3.2 9.7 0.00 0.05 0.05 67 1011.8
20260503000052 19 34 3.2 6.4 0.00 0.05 0.05 63 1012.0
20260502234601 19 30 1.6 8.0 0.00 0.05 0.05 66 1012.1
20260502233050 19 37 3.2 6.4 0.00 0.05 0.05 65 1012.3
20260502231549 18 319 3.2 8.0 0.00 0.05 0.05 65 1012.4
20260502230053 18 22 1.6 6.4 0.00 0.05 0.05 69 1012.4
20260502224555 18 11 3.2 8.0 0.00 0.05 0.05 68 1012.7
20260502223101 17 22 4.8 12.9 0.00 0.05 0.05 68 1013.0
20260502221557 17 40 1.6 9.7 0.00 0.05 0.05 67 1013.2
20260502214609 17 5 6.4 12.9 0.00 0.05 0.05 68 1013.7
20260502213117 17 28 3.2 14.5 0.00 0.05 0.05 70 1013.8
20260502211558 16 44 6.4 11.3 0.00 0.05 0.05 70 1014.0
20260502210058 16 352 4.8 12.9 0.00 0.05 0.05 72 1014.0
20260502204550 16 339 3.2 11.3 0.00 0.05 0.05 71 1014.4
20260502203113 15 67 6.4 14.5 0.00 0.05 0.05 75 1014.6
20260502201554 14 21 1.6 9.7 0.00 0.05 0.05 77 1014.6
20260502200057 13 104 4.8 11.3 0.00 0.05 0.05 76 1014.9
20260502194553 13 350 1.6 12.9 0.00 0.05 0.05 78 1014.8
20260502193100 13 15 4.8 8.0 0.00 0.05 0.05 79 1014.9
20260502191600 13 5 1.6 6.4 0.00 0.05 0.05 81 1015.1
20260502190054 12 316 3.2 8.0 0.00 0.05 0.05 81 1015.5